Location: Domäne Düna
(51.6892°N, 10.2808°E)
Time: 22:56:35
(UTC+00:00)

Daily predictions for brighter satellites

Satellite Brightness Start Highest point End
(mag) Time Altitude Azimuth Time Altitude Azimuth Time Altitude Azimuth
NOSS 3-4 (A) 3.8 16:53:50 10° NW 17:00:15 63° NE 17:07:50 10° ESE
NOSS 3-4 (C) 3.8 16:54:06 10° NW 17:00:32 63° NE 17:08:07 10° ESE
Cosmos 2227 Rocket 3.6 17:00:21 10° SE 17:03:45 16° E 17:07:09 10° ENE
Cosmos 1025 Rocket 3.3 17:00:36 10° SSE 17:04:44 47° E 17:08:55 10° NNE
Aureole 3 Rocket 3.1 17:02:17 10° N 17:06:01 36° ENE 17:09:02 10° SE
Thor Agena Rocket 4.4 17:06:10 10° S 17:11:11 57° WSW 17:16:18 10° NNW
Sich 1 Rocket 3.6 17:10:08 10° N 17:14:41 67° ENE 17:19:13 10° SSE
ATLAS 2AS CENTAUR R/B 3.8 17:10:40 10° W 17:16:58 36° NNW 17:23:12 10° NE
GP-B 3.3 17:12:57 10° S 17:17:19 79° W 17:21:43 10° N
SKYMED 2 3.7 17:14:00 10° NNE 17:18:16 51° E 17:22:30 10° S
Cosmos 2123 Rocket 4.4 17:12:35 10° SSW 17:18:54 72° WNW 17:25:13 10° N
Resurs 1-3 3.5 17:16:32 10° SSE 17:20:48 66° ENE 17:25:05 10° N
Lacrosse 5 rocket 1.7 17:21:09 10° W 17:24:31 44° NNW 17:27:50 11° ENE
CZ-4 R/B 3.2 17:27:51 11° ENE 17:28:04 11° NE 17:29:07 10° NE
Resurs 01 Rocket 2.1 17:24:19 10° SE 17:28:22 38° ENE 17:32:28 10° N
Cosmos 1782 3.7 17:28:36 10° NNE 17:31:28 22° ENE 17:34:20 10° ESE
SPOT 1/Viking Rocket 4.0 17:29:31 10° S 17:34:35 65° WSW 17:39:43 10° NNW
Cosmos 1674 Rocket 3.9 17:30:20 10° SSW 17:34:43 72° WNW 17:39:09 10° N
USA 267 3.3 17:30:36 10° ENE 17:37:12 86° SSE 17:43:46 10° WSW
CARTOSAT-1 3.5 17:34:44 10° SSE 17:38:51 58° ENE 17:43:01 10° N
Radarsat Rocket 4.0 17:36:10 10° SSE 17:42:05 82° ENE 17:48:34 10° NNW
Cosmos 2082 Rocket 4.5 17:40:23 10° NW 17:42:45 12° NNW 17:45:06 10° N
ARIANE 6 FM1 Upper Stage 3.1 17:39:13 10° NW 17:42:58 39° NNE 17:45:29 18° E
SL-19 R/B 4.4 17:38:22 10° SSE 17:44:26 70° ENE 17:50:14 10° NNW
Cosmos 2297 Rocket 2.2 17:41:53 10° SSW 17:47:30 70° ESE 17:53:09 10° NE
RESURS DK-1 4.1 17:46:13 10° N 17:48:39 15° NE 17:49:28 15° NE
Cosmos 1447 Rocket 4.4 17:42:44 10° S 17:48:52 81° E 17:55:03 10° NNE
Cosmos 1943 4.4 17:44:27 10° NNW 17:49:09 25° NE 17:51:55 18° ENE
SPOT 5 3.7 17:52:21 14° ESE 17:55:45 30° ENE 18:00:12 10° N
SeaSat 1 3.8 17:52:57 10° S 17:57:35 42° WSW 18:02:14 10° NW
SJ-6B 2.7 17:55:26 10° SE 17:58:43 45° ENE 18:02:02 10° N
Tiangong 0.4 17:57:45 10° SSW 17:59:09 12° S 18:00:16 11° SSE
IRAS Rocket 4.3 17:53:41 10° SE 17:59:12 62° ENE 18:04:47 10° NNW
PSLV R/B 3.5 17:59:30 10° SSE 18:03:36 79° WSW 18:07:43 10° NNW
Cosmos 2228 2.9 17:59:28 10° N 18:03:38 64° ENE 18:07:49 10° SSE
COSMO-SKYMED 1 2.3 18:00:02 10° NNE 18:04:11 86° ESE 18:08:18 10° SSW
Meteor 1-31 Rocket 3.4 18:06:27 29° ENE 18:06:27 29° ENE 18:09:21 10° N
Cosmos 1544 Rocket 4.0 18:02:18 10° N 18:06:21 37° ENE 18:08:59 19° SE
NOSS 3-3 (C) 4.0 18:01:20 10° SW 18:06:44 73° NW 18:13:05 11° NE
Cosmos 1570 Rocket 3.9 18:02:55 10° SSW 18:08:11 82° ESE 18:13:28 10° NNE
CZ-2D R/B 4.3 18:04:40 10° S 18:08:31 51° W 18:12:27 10° NNW
YAOGAN 3 4.5 18:04:42 10° SSE 18:08:55 87° WSW 18:13:10 10° NNW
Cosmos 2344 4.0 18:03:17 10° S 18:10:15 36° ESE 18:14:28 20° ENE
Cosmos 1455 Rocket 3.5 18:07:05 10° NNW 18:11:21 63° W 18:15:34 10° S
YAOGAN 1 3.9 18:08:41 10° S 18:12:44 42° W 18:16:48 10° NNW
CZ-4B R/B 4.2 18:12:54 30° ESE 18:14:08 40° ENE 18:17:46 10° N
Cosmos 2263 Rocket 2.8 18:09:16 10° SSE 18:14:17 33° ESE 18:16:41 24° ENE
Cosmos 2034 Rocket 4.0 18:09:07 10° N 18:15:11 55° ENE 18:21:16 10° SSE
Cosmos 1975 Rocket 2.9 18:11:02 10° S 18:15:19 63° E 18:19:37 10° NNE
DMSP B5D1-3 4.4 18:10:14 10° NNE 18:15:20 66° ESE 18:20:25 10° S
Cosmos 1072 Rocket 4.4 18:09:53 10° N 18:16:11 85° E 18:22:20 10° S
Cosmos 2237 Rocket 3.5 18:14:56 10° NW 18:20:15 43° WSW 18:25:35 10° S
Cosmos 1634 Rocket 4.5 18:15:38 10° N 18:21:30 38° ENE 18:24:27 25° ESE
Cosmos 773 Rocket 3.9 18:19:22 10° SSW 18:24:38 87° ESE 18:29:58 10° NNE
DNEPR-1 R/B 4.3 18:20:07 10° NW 18:24:54 66° SW 18:30:40 10° SSE
Terra 3.1 18:31:23 24° NE 18:31:23 24° NE 18:34:17 10° N
Cosmos 972 Rocket 4.3 18:25:41 10° NNW 18:30:27 43° ENE 18:31:38 37° E
Cosmos 2208 Rocket 4.0 18:25:19 10° SSW 18:30:35 89° ESE 18:35:58 10° NNE
Meteor 2-17 Rocket 4.5 18:30:46 10° SSW 18:36:50 82° W 18:42:56 10° N
Cosmos 1346 Rocket 2.4 18:35:45 10° S 18:39:22 80° E 18:40:09 52° NNE
Cosmos 44 Rocket 3.3 18:34:52 10° SW 18:39:50 86° NW 18:42:35 28° NE
TSX-5 4.1 18:35:30 10° NNW 18:40:50 80° NE 18:42:13 45° SE
Cosmos 1464 Rocket 4.3 18:35:53 10° NNW 18:42:14 72° W 18:48:29 10° S
Cosmos 2279 Rocket 4.4 18:36:48 10° N 18:42:32 38° ENE 18:43:02 37° E
Cosmos 1602 4.0 18:40:21 10° SSW 18:43:01 44° WNW 18:43:15 43° WNW
CZ-4C R/B 3.2 18:40:13 10° W 18:44:40 38° NNW 18:48:40 17° NE
Cosmos 2227 Rocket 2.1 18:41:16 10° SSW 18:46:55 85° ESE 18:51:30 16° NNE
SL-16 R/B 2.2 18:41:27 10° NNW 18:47:08 81° WSW 18:50:49 23° SSE
ATLAS CENTAUR R/B 3.3 18:54:30 10° NNW 18:54:54 13° NNW 18:54:54 13° NNW
MetOp-B 4.3 18:57:17 49° ENE 18:57:17 49° ENE 19:02:24 10° N
CZ-4 R/B 2.2 19:02:50 38° N 19:02:50 38° N 19:05:14 10° NNW
Lacrosse 5 rocket 2.4 18:58:34 10° WNW 19:01:16 32° NNW 19:01:16 32° NNW
Resurs 01 Rocket 3.6 19:00:59 10° SSW 19:04:49 29° W 19:08:41 10° NNW
Cosmos 1782 4.3 19:03:01 10° NNW 19:06:16 32° W 19:09:29 10° SSW
BREEZE-M DEB (TANK) 4.4 19:03:27 10° SSW 19:08:09 48° SE 19:11:13 38° E
ATLAS 2AS CENTAUR R/B 3.8 19:03:40 10° NW 19:09:40 31° N 19:11:46 26° NE
CZ-4B R/B 3.0 19:11:59 65° ENE 19:11:59 65° ENE 19:17:05 10° N
Gbstr 26 Del rocket 4.4 19:07:18 10° SW 19:14:06 55° SSE 19:15:03 51° ESE
CSL-04 Debris 4.3 19:12:11 28° S 19:15:11 73° WSW 19:20:38 10° NNW
CZ-4B DEB 4.1 19:14:54 47° S 19:16:33 84° WSW 19:22:02 10° NNW
ERS-1 Rocket 3.3 19:20:01 55° NNE 19:20:01 55° NNE 19:24:02 10° N
USA 267 3.6 19:17:49 40° NE 19:20:04 60° N 19:26:29 10° W
CSL-04 Rocket 4.0 19:17:15 24° S 19:20:25 62° WSW 19:25:40 10° NNW
ARIANE 6 FM1 Upper Stage 3.7 19:18:16 10° WNW 19:21:31 39° WSW 19:21:31 39° WSW
RESURS DK-1 3.9 19:22:43 10° NNW 19:24:45 29° NNW 19:24:45 29° NNW
Cosmos 2082 Rocket 4.5 19:27:39 10° N 19:29:37 12° NNE 19:30:22 11° NNE
Cosmos 2297 Rocket 3.9 19:27:06 10° WSW 19:32:03 30° NW 19:37:00 10° NNE
SPOT 5 3.8 19:31:23 30° SSW 19:33:29 48° W 19:38:26 10° NNW
Cosmos 1943 3.1 19:28:11 10° NNW 19:33:43 84° NW 19:33:43 84° NW
Okean O Rocket 3.8 19:39:04 17° N 19:39:04 17° N 19:40:08 10° N
Tsikada Rocket 4.0 19:30:02 10° SSW 19:36:11 78° W 19:42:26 10° N
Gblst 52 Del rocket 4.5 19:30:38 10° WNW 19:37:56 76° SSW 19:38:18 74° SSE
MOS 1 4.3 19:38:44 75° SW 19:39:01 77° WSW 19:44:44 10° NNW
Cosmos 2219 4.2 19:42:15 10° SSW 19:45:34 36° SSW 19:45:34 36° SSW
Cosmos 1603 4.4 19:44:07 10° NNW 19:48:05 44° N 19:48:05 44° N
ADEOS 4.2 19:53:50 54° WNW 19:53:50 54° WNW 19:58:16 10° NNW
Cosmos 2263 Rocket 2.8 19:52:24 10° SW 19:57:58 54° NW 19:58:28 52° NNW
Terra 3.6 20:10:00 27° NW 20:10:00 27° NW 20:12:18 10° NNW
Cosmos 2344 3.6 20:16:43 10° WSW 20:24:08 65° NW 20:24:32 63° NNW
Cosmos 2227 Rocket 4.1 20:26:59 10° W 20:31:40 26° NW 20:33:22 22° NNW
CZ-4C R/B 4.0 20:29:46 10° NW 20:33:37 27° NNW 20:33:37 27° NNW
ATLAS 2AS CENTAUR R/B 4.0 20:55:18 10° NW 20:59:11 34° NNW 20:59:11 34° NNW
USA 267 4.4 21:05:09 38° NW 21:05:09 38° NW 21:09:08 10° WNW
